Year,Month,Day,Hour,Minute,Value (Times are PST for temperature in C)
2012,11,06,00,02,8.40
2012,11,06,00,04,8.40
2012,11,06,00,05,8.40
2012,11,06,00,06,8.40
2012,11,06,00,07,8.40
2012,11,06,00,09,8.40
2012,11,06,00,10,8.40
2012,11,06,00,11,8.40
2012,11,06,00,12,8.40
2012,11,06,00,14,8.40
2012,11,06,00,15,8.40
2012,11,06,00,16,8.40
2012,11,06,00,17,8.50
2012,11,06,00,19,8.50
2012,11,06,00,20,8.50
2012,11,06,00,21,8.50
2012,11,06,00,22,8.50
2012,11,06,00,24,8.50
2012,11,06,00,25,8.50
2012,11,06,00,26,8.50
2012,11,06,00,27,8.50
2012,11,06,00,29,8.50
2012,11,06,00,30,8.50
2012,11,06,00,31,8.50
2012,11,06,00,32,8.50
2012,11,06,00,34,8.50
2012,11,06,00,35,8.50
2012,11,06,00,36,8.50
2012,11,06,00,37,8.60
2012,11,06,00,38,8.60
2012,11,06,00,40,8.60
2012,11,06,00,41,8.60
2012,11,06,00,42,8.70
2012,11,06,00,44,8.70
2012,11,06,00,45,8.70
2012,11,06,00,46,8.80
2012,11,06,00,47,8.80
2012,11,06,00,49,8.80
2012,11,06,00,50,8.80
2012,11,06,00,51,8.90
2012,11,06,00,52,8.90
2012,11,06,00,54,8.90
2012,11,06,00,55,8.90
2012,11,06,00,56,8.90
2012,11,06,00,57,8.90
2012,11,06,00,59,8.90
2012,11,06,01,00,8.90
2012,11,06,01,01,8.90
2012,11,06,01,02,8.90
2012,11,06,01,04,8.90
2012,11,06,01,05,8.90
2012,11,06,01,06,8.90
2012,11,06,01,07,8.90
2012,11,06,01,09,8.90
2012,11,06,01,10,8.90
2012,11,06,01,11,8.90
2012,11,06,01,13,8.90
2012,11,06,01,14,8.90
2012,11,06,01,15,8.90
2012,11,06,01,16,8.90
2012,11,06,01,18,8.90
2012,11,06,01,19,8.90
2012,11,06,01,20,8.90
2012,11,06,01,21,8.90
2012,11,06,01,23,8.90
2012,11,06,01,24,8.90
2012,11,06,01,25,8.90
2012,11,06,01,26,8.90
2012,11,06,01,28,8.90
2012,11,06,01,29,8.80
2012,11,06,01,30,8.80
2012,11,06,01,31,8.80
2012,11,06,01,33,8.80
2012,11,06,01,34,8.80
2012,11,06,01,35,8.80
2012,11,06,01,36,8.80
2012,11,06,01,38,8.80
2012,11,06,01,39,8.80
2012,11,06,01,40,8.80
2012,11,06,01,41,8.80
2012,11,06,01,42,8.70
2012,11,06,01,43,8.70
2012,11,06,01,44,8.70
2012,11,06,01,45,8.70
2012,11,06,01,46,8.70
2012,11,06,01,47,8.70
2012,11,06,01,48,8.70
2012,11,06,01,50,8.70
2012,11,06,01,51,8.70
2012,11,06,01,52,8.70
2012,11,06,01,53,8.70
2012,11,06,01,55,8.70
2012,11,06,01,56,8.70
2012,11,06,01,57,8.80
2012,11,06,01,58,8.80
2012,11,06,02,00,8.80
2012,11,06,02,01,8.80
2012,11,06,02,02,8.80
2012,11,06,02,03,8.80
2012,11,06,02,04,8.80
2012,11,06,02,06,8.80
2012,11,06,02,07,8.80
2012,11,06,02,08,8.80
2012,11,06,02,10,8.80
2012,11,06,02,11,8.80
2012,11,06,02,12,8.80
2012,11,06,02,14,8.80
2012,11,06,02,15,8.80
2012,11,06,02,16,8.80
2012,11,06,02,17,8.80
2012,11,06,02,19,8.80
2012,11,06,02,20,8.80
2012,11,06,02,21,8.80
2012,11,06,02,22,8.80
2012,11,06,02,23,8.80
2012,11,06,02,24,8.80
2012,11,06,02,26,8.80
2012,11,06,02,27,8.80
2012,11,06,02,28,8.80
2012,11,06,02,29,8.80
2012,11,06,02,31,8.80
2012,11,06,02,32,8.80
2012,11,06,02,33,8.80
2012,11,06,02,34,8.80
2012,11,06,02,35,8.80
2012,11,06,02,37,8.80
2012,11,06,02,38,8.80
2012,11,06,02,39,8.80
2012,11,06,02,40,8.80
2012,11,06,02,42,8.80
2012,11,06,02,43,8.80
2012,11,06,02,44,8.80
2012,11,06,02,45,8.80
2012,11,06,02,46,8.80
2012,11,06,02,48,8.80
2012,11,06,02,49,8.80
2012,11,06,02,50,8.80
2012,11,06,02,51,8.80
2012,11,06,02,53,8.80
2012,11,06,02,54,8.80
2012,11,06,02,55,8.80
2012,11,06,02,56,8.80
2012,11,06,02,57,8.80
2012,11,06,02,59,8.80
2012,11,06,03,00,8.80
2012,11,06,03,01,8.80
2012,11,06,03,02,8.80
2012,11,06,03,04,8.80
2012,11,06,03,05,8.80
2012,11,06,03,06,8.80
2012,11,06,03,07,8.80
2012,11,06,03,09,8.80
2012,11,06,03,10,8.80
2012,11,06,03,11,8.80
2012,11,06,03,12,8.80
2012,11,06,03,13,8.80
2012,11,06,03,14,8.80
2012,11,06,03,15,8.80
2012,11,06,03,17,8.80
2012,11,06,03,18,8.80
2012,11,06,03,19,8.80
2012,11,06,03,20,8.80
2012,11,06,03,21,8.80
2012,11,06,03,23,8.80
2012,11,06,03,24,8.80
2012,11,06,03,25,8.80
2012,11,06,03,26,8.80
2012,11,06,03,27,8.80
2012,11,06,03,28,8.80
2012,11,06,03,29,8.80
2012,11,06,03,30,8.80
2012,11,06,03,31,8.80
2012,11,06,03,32,8.80
2012,11,06,03,33,8.80
2012,11,06,03,34,8.80
2012,11,06,03,36,8.80
2012,11,06,03,37,8.80
2012,11,06,03,38,8.80
2012,11,06,03,39,8.80
2012,11,06,03,40,8.80
2012,11,06,03,41,8.80
2012,11,06,03,42,8.80
2012,11,06,03,43,8.80
2012,11,06,03,44,8.80
2012,11,06,03,45,8.80
2012,11,06,03,46,8.80
2012,11,06,03,47,8.80
2012,11,06,03,48,8.80
2012,11,06,03,49,8.80
2012,11,06,03,50,8.80
2012,11,06,03,51,8.80
2012,11,06,03,52,8.80
2012,11,06,03,53,8.80
2012,11,06,03,54,8.80
2012,11,06,03,56,8.80
2012,11,06,03,57,8.80
2012,11,06,03,58,8.80
2012,11,06,03,59,8.80
2012,11,06,04,01,8.80
2012,11,06,04,02,8.80
2012,11,06,04,03,8.80
2012,11,06,04,04,8.80
2012,11,06,04,06,8.80
2012,11,06,04,07,8.80
2012,11,06,04,08,8.80
2012,11,06,04,09,8.80
2012,11,06,04,10,8.80
2012,11,06,04,11,8.80
2012,11,06,04,12,8.80
2012,11,06,04,13,8.80
2012,11,06,04,15,8.80
2012,11,06,04,16,8.90
2012,11,06,04,17,8.90
2012,11,06,04,18,8.80
2012,11,06,04,19,8.90
2012,11,06,04,20,8.90
2012,11,06,04,21,8.90
2012,11,06,04,22,8.90
2012,11,06,04,23,8.90
2012,11,06,04,25,8.90
2012,11,06,04,26,8.90
2012,11,06,04,27,8.90
2012,11,06,04,29,8.90
2012,11,06,04,30,8.90
2012,11,06,04,31,8.90
2012,11,06,04,32,8.90
2012,11,06,04,34,8.90
2012,11,06,04,35,8.90
2012,11,06,04,36,8.90
2012,11,06,04,37,8.90
2012,11,06,04,39,8.90
2012,11,06,04,40,8.90
2012,11,06,04,41,8.90
2012,11,06,04,43,8.90
2012,11,06,04,44,8.90
2012,11,06,04,45,8.90
2012,11,06,04,46,8.90
2012,11,06,04,47,8.90
2012,11,06,04,49,8.90
2012,11,06,04,50,8.90
2012,11,06,04,51,8.90
2012,11,06,04,52,8.90
2012,11,06,04,53,8.90
2012,11,06,04,55,8.90
2012,11,06,04,56,8.90
2012,11,06,04,57,9.00
2012,11,06,04,58,9.00
2012,11,06,04,59,9.00
2012,11,06,05,01,9.00
2012,11,06,05,02,9.00
2012,11,06,05,03,9.00
2012,11,06,05,04,9.00
2012,11,06,05,05,9.10
2012,11,06,05,06,9.00
2012,11,06,05,07,9.10
2012,11,06,05,08,9.10
2012,11,06,05,09,9.10
2012,11,06,05,11,9.10
2012,11,06,05,12,9.10
2012,11,06,05,13,9.10
2012,11,06,05,14,9.10
2012,11,06,05,15,9.10
2012,11,06,05,17,9.10
2012,11,06,05,18,9.10
2012,11,06,05,19,9.10
2012,11,06,05,20,9.10
2012,11,06,05,22,9.10
2012,11,06,05,23,9.10
2012,11,06,05,24,9.10
2012,11,06,05,25,9.10
2012,11,06,05,26,9.10
2012,11,06,05,28,9.10
2012,11,06,05,29,9.10
2012,11,06,05,30,9.10
2012,11,06,05,31,9.10
2012,11,06,05,32,9.10
2012,11,06,05,33,9.10
2012,11,06,05,34,9.10
2012,11,06,05,35,9.10
2012,11,06,05,36,9.10
2012,11,06,05,37,9.10
2012,11,06,05,38,9.10
2012,11,06,05,39,9.10
2012,11,06,05,40,9.10
2012,11,06,05,41,9.10
2012,11,06,05,42,9.10
2012,11,06,05,43,9.10
2012,11,06,05,44,9.10
2012,11,06,05,45,9.10
2012,11,06,05,46,9.10
2012,11,06,05,47,9.10
2012,11,06,05,48,9.10
2012,11,06,05,49,9.10
2012,11,06,05,50,9.10
2012,11,06,05,52,9.10
2012,11,06,05,53,9.10
2012,11,06,05,54,9.10
2012,11,06,05,55,9.10
2012,11,06,05,57,9.10
2012,11,06,05,58,9.10
2012,11,06,05,59,9.10
2012,11,06,06,00,9.10
2012,11,06,06,01,9.10
2012,11,06,06,02,9.10
2012,11,06,06,03,9.10
2012,11,06,06,04,9.10
2012,11,06,06,05,9.10
2012,11,06,06,06,9.20
2012,11,06,06,07,9.20
2012,11,06,06,08,9.20
2012,11,06,06,09,9.20
2012,11,06,06,10,9.20
2012,11,06,06,11,9.20
2012,11,06,06,12,9.20
2012,11,06,06,14,9.20
2012,11,06,06,15,9.20
2012,11,06,06,16,9.20
2012,11,06,06,17,9.20
2012,11,06,06,19,9.20
2012,11,06,06,20,9.20
2012,11,06,06,21,9.20
2012,11,06,06,22,9.20
2012,11,06,06,24,9.20
2012,11,06,06,25,9.20
2012,11,06,06,26,9.20
2012,11,06,06,28,9.20
2012,11,06,06,29,9.20
2012,11,06,06,30,9.20
2012,11,06,06,32,9.20
2012,11,06,06,33,9.20
2012,11,06,06,34,9.20
2012,11,06,06,35,9.20
2012,11,06,06,36,9.20
2012,11,06,06,37,9.20
2012,11,06,06,38,9.20
2012,11,06,06,39,9.20
2012,11,06,06,40,9.20
2012,11,06,06,41,9.20
2012,11,06,06,42,9.20
2012,11,06,06,43,9.20
2012,11,06,06,44,9.20
2012,11,06,06,45,9.20
2012,11,06,06,46,9.10
2012,11,06,06,47,9.20
2012,11,06,06,48,9.20
2012,11,06,06,49,9.10
2012,11,06,06,50,9.10
2012,11,06,06,51,9.10
2012,11,06,06,52,9.10
2012,11,06,06,53,9.20
2012,11,06,06,54,9.10
2012,11,06,06,55,9.10
2012,11,06,06,56,9.10
2012,11,06,06,57,9.10
2012,11,06,06,58,9.10
2012,11,06,06,59,9.10
2012,11,06,07,00,9.10
2012,11,06,07,01,9.10
2012,11,06,07,02,9.10
2012,11,06,07,03,9.10
2012,11,06,07,04,9.10
2012,11,06,07,05,9.10
2012,11,06,07,06,9.10
2012,11,06,07,07,9.10
2012,11,06,07,08,9.10
2012,11,06,07,09,9.10
2012,11,06,07,10,9.10
2012,11,06,07,11,9.10
2012,11,06,07,12,9.10
2012,11,06,07,13,9.10
2012,11,06,07,14,9.10
2012,11,06,07,15,9.10
2012,11,06,07,16,9.10
2012,11,06,07,17,9.10
2012,11,06,07,18,9.10
2012,11,06,07,19,9.10
2012,11,06,07,20,9.10
2012,11,06,07,21,9.10
2012,11,06,07,22,9.10
2012,11,06,07,23,9.10
2012,11,06,07,24,9.10
2012,11,06,07,25,9.10
2012,11,06,07,26,9.10
2012,11,06,07,27,9.10
2012,11,06,07,28,9.10
2012,11,06,07,29,9.10
2012,11,06,07,30,9.10
2012,11,06,07,31,9.10
2012,11,06,07,33,9.10
2012,11,06,07,34,9.10
2012,11,06,07,35,9.10
2012,11,06,07,36,9.10
2012,11,06,07,38,9.10
2012,11,06,07,39,9.10
2012,11,06,07,40,9.10
2012,11,06,07,41,9.10
2012,11,06,07,43,9.10
2012,11,06,07,44,9.10
2012,11,06,07,45,9.10
2012,11,06,07,46,9.10
2012,11,06,07,48,9.10
2012,11,06,07,49,9.10
2012,11,06,07,50,9.20
2012,11,06,07,51,9.10
2012,11,06,07,52,9.10
2012,11,06,07,54,9.10
2012,11,06,07,55,9.10
2012,11,06,07,56,9.10
2012,11,06,07,57,9.10
2012,11,06,07,58,9.10
2012,11,06,07,59,9.10
2012,11,06,08,00,9.10
2012,11,06,08,02,9.10
2012,11,06,08,03,9.10
2012,11,06,08,04,9.20
2012,11,06,08,05,9.20
2012,11,06,08,07,9.10
2012,11,06,08,08,9.20
2012,11,06,08,09,9.20
2012,11,06,08,11,9.20
2012,11,06,08,12,9.20
2012,11,06,08,13,9.20
2012,11,06,08,14,9.20
2012,11,06,08,15,9.20
2012,11,06,08,16,9.20
2012,11,06,08,17,9.20
2012,11,06,08,18,9.20
2012,11,06,08,19,9.20
2012,11,06,08,21,9.20
2012,11,06,08,22,9.20
2012,11,06,08,23,9.20
2012,11,06,08,24,9.20
2012,11,06,08,26,9.20
2012,11,06,08,27,9.20
2012,11,06,08,28,9.20
2012,11,06,08,30,9.20
2012,11,06,08,31,9.20
2012,11,06,08,32,9.20
2012,11,06,08,34,9.20
2012,11,06,08,35,9.20
2012,11,06,08,36,9.20
2012,11,06,08,37,9.20
2012,11,06,08,38,9.20
2012,11,06,08,39,9.20
2012,11,06,08,40,9.20
2012,11,06,08,41,9.20
2012,11,06,08,42,9.20
2012,11,06,08,43,9.20
2012,11,06,08,44,9.20
2012,11,06,08,45,9.20
2012,11,06,08,46,9.30
2012,11,06,08,47,9.30
2012,11,06,08,48,9.20
2012,11,06,08,49,9.20
2012,11,06,08,50,9.20
2012,11,06,08,51,9.20
2012,11,06,08,52,9.20
2012,11,06,08,54,9.20
2012,11,06,08,55,9.20
2012,11,06,08,56,9.20
2012,11,06,08,57,9.20
2012,11,06,08,59,9.20
2012,11,06,09,00,9.20
2012,11,06,09,01,9.20
2012,11,06,09,02,9.20
2012,11,06,09,03,9.20
2012,11,06,09,04,9.20
2012,11,06,09,05,9.30
2012,11,06,09,06,9.30
2012,11,06,09,07,9.30
2012,11,06,09,08,9.30
2012,11,06,09,09,9.30
2012,11,06,09,10,9.30
2012,11,06,09,11,9.30
2012,11,06,09,12,9.30
2012,11,06,09,13,9.40
2012,11,06,09,14,9.40
2012,11,06,09,15,9.40
2012,11,06,09,16,9.40
2012,11,06,09,17,9.40
2012,11,06,09,18,9.50
2012,11,06,09,19,9.50
2012,11,06,09,20,9.60
2012,11,06,09,22,9.60
2012,11,06,09,23,9.60
2012,11,06,09,24,9.60
2012,11,06,09,25,9.60
2012,11,06,09,27,9.60
2012,11,06,09,28,9.60
2012,11,06,09,29,9.60
2012,11,06,09,30,9.60
2012,11,06,09,31,9.60
2012,11,06,09,32,9.70
2012,11,06,09,33,9.70
2012,11,06,09,34,9.60
2012,11,06,09,35,9.60
2012,11,06,09,37,9.60
2012,11,06,09,38,9.60
2012,11,06,09,39,9.60
2012,11,06,09,40,9.50
2012,11,06,09,42,9.50
2012,11,06,09,43,9.40
2012,11,06,09,44,9.40
2012,11,06,09,45,9.40
2012,11,06,09,47,9.40
2012,11,06,09,48,9.30
2012,11,06,09,49,9.30
2012,11,06,09,50,9.30
2012,11,06,09,51,9.30
2012,11,06,09,52,9.30
2012,11,06,09,53,9.30
2012,11,06,09,54,9.30
2012,11,06,09,55,9.30
2012,11,06,09,56,9.30
2012,11,06,09,57,9.30
2012,11,06,09,58,9.30
2012,11,06,09,59,9.30
2012,11,06,10,00,9.30
2012,11,06,10,02,9.30
2012,11,06,10,03,9.30
2012,11,06,10,04,9.30
2012,11,06,10,05,9.30
2012,11,06,10,06,9.30
2012,11,06,10,07,9.30
2012,11,06,10,08,9.30
2012,11,06,10,09,9.30
2012,11,06,10,10,9.30
2012,11,06,10,11,9.30
2012,11,06,10,13,9.30
2012,11,06,10,14,9.30
2012,11,06,10,15,9.30
2012,11,06,10,16,9.30
2012,11,06,10,18,9.30
2012,11,06,10,19,9.40
2012,11,06,10,20,9.40
2012,11,06,10,21,9.40
2012,11,06,10,22,9.40
2012,11,06,10,24,9.40
2012,11,06,10,25,9.40
2012,11,06,10,26,9.40
2012,11,06,10,27,9.40
2012,11,06,10,28,9.40
2012,11,06,10,30,9.40
2012,11,06,10,31,9.40
2012,11,06,10,32,9.50
2012,11,06,10,34,9.50
2012,11,06,10,35,9.50
2012,11,06,10,36,9.60
2012,11,06,10,37,9.60
2012,11,06,10,39,9.60
2012,11,06,10,40,9.70
2012,11,06,10,41,9.70
2012,11,06,10,42,9.70
2012,11,06,10,43,9.70
2012,11,06,10,44,9.70
2012,11,06,10,45,9.70
2012,11,06,10,46,9.70
2012,11,06,10,47,9.80
2012,11,06,10,49,9.80
2012,11,06,10,50,9.80
2012,11,06,10,51,9.90
2012,11,06,10,52,9.90
2012,11,06,10,53,9.90
2012,11,06,10,54,9.90
2012,11,06,10,55,9.90
2012,11,06,10,56,10.00
2012,11,06,10,57,10.00
2012,11,06,10,59,10.00
2012,11,06,11,00,10.00
2012,11,06,11,01,10.10
2012,11,06,11,02,10.10
2012,11,06,11,04,10.10
2012,11,06,11,05,10.20
2012,11,06,11,06,10.20
2012,11,06,11,07,10.20
2012,11,06,11,09,10.20
2012,11,06,11,10,10.20
2012,11,06,11,11,10.30
2012,11,06,11,12,10.30
2012,11,06,11,13,10.30
2012,11,06,11,14,10.40
2012,11,06,11,15,10.40
2012,11,06,11,16,10.40
2012,11,06,11,17,10.40
2012,11,06,11,19,10.40
2012,11,06,11,20,10.40
2012,11,06,11,21,10.40
2012,11,06,11,22,10.30
2012,11,06,11,23,10.30
2012,11,06,11,24,10.20
2012,11,06,11,25,10.20
2012,11,06,11,26,10.20
2012,11,06,11,27,10.10
2012,11,06,11,29,10.10
2012,11,06,11,30,10.10
2012,11,06,11,31,10.10
2012,11,06,11,32,10.10
2012,11,06,11,33,10.10
2012,11,06,11,35,10.00
2012,11,06,11,36,10.00
2012,11,06,11,37,10.00
2012,11,06,11,38,10.00
2012,11,06,11,39,10.00
2012,11,06,11,40,10.00
2012,11,06,11,41,10.00
2012,11,06,11,42,10.00
2012,11,06,11,44,10.00
2012,11,06,11,45,10.00
2012,11,06,11,46,10.10
2012,11,06,11,47,10.10
2012,11,06,11,49,10.10
2012,11,06,11,50,10.10
2012,11,06,11,51,10.10
2012,11,06,11,52,10.00
2012,11,06,11,53,10.00
2012,11,06,11,55,10.00
2012,11,06,11,56,10.00
2012,11,06,11,57,10.00
2012,11,06,11,58,10.00
2012,11,06,12,00,10.00
2012,11,06,12,01,9.90
2012,11,06,12,02,9.90
2012,11,06,12,03,9.90
2012,11,06,12,04,9.90
2012,11,06,12,05,9.90
2012,11,06,12,06,9.90
2012,11,06,12,07,9.80
2012,11,06,12,09,9.80
2012,11,06,12,10,9.80
2012,11,06,12,11,9.80
2012,11,06,12,12,9.80
2012,11,06,12,14,9.80
2012,11,06,12,15,9.70
2012,11,06,12,16,9.70
2012,11,06,12,17,9.70
2012,11,06,12,19,9.70
2012,11,06,12,20,9.70
2012,11,06,12,21,9.70
2012,11,06,12,22,9.70
2012,11,06,12,23,9.70
2012,11,06,12,25,9.70
2012,11,06,12,26,9.70
2012,11,06,12,27,9.70
2012,11,06,12,28,9.70
2012,11,06,12,29,9.70
2012,11,06,12,31,9.70
2012,11,06,12,32,9.70
2012,11,06,12,33,9.70
2012,11,06,12,35,9.70
2012,11,06,12,36,9.60
2012,11,06,12,37,9.60
2012,11,06,12,38,9.60
2012,11,06,12,40,9.60
2012,11,06,12,41,9.50
2012,11,06,12,42,9.40
2012,11,06,12,44,9.40
2012,11,06,12,45,9.40
2012,11,06,12,46,9.40
2012,11,06,12,47,9.40
2012,11,06,12,49,9.40
2012,11,06,12,50,9.30
2012,11,06,12,51,9.30
2012,11,06,12,52,9.30
2012,11,06,12,53,9.30
2012,11,06,12,55,9.30
2012,11,06,12,56,9.20
2012,11,06,12,57,9.20
2012,11,06,12,58,9.20
2012,11,06,12,59,9.20
2012,11,06,13,00,9.20
2012,11,06,13,01,9.20
2012,11,06,13,02,9.20
2012,11,06,13,03,9.20
2012,11,06,13,05,9.30
2012,11,06,13,06,9.30
2012,11,06,13,07,9.30
2012,11,06,13,08,9.30
2012,11,06,13,09,9.30
2012,11,06,13,11,9.30
2012,11,06,13,12,9.30
2012,11,06,13,13,9.20
2012,11,06,13,14,9.20
2012,11,06,13,16,9.20
2012,11,06,13,17,9.20
2012,11,06,13,18,9.20
2012,11,06,13,19,9.20
2012,11,06,13,21,9.20
2012,11,06,13,22,9.20
2012,11,06,13,23,9.20
2012,11,06,13,24,9.20
2012,11,06,13,26,9.20
2012,11,06,13,27,9.20
2012,11,06,13,28,9.20
2012,11,06,13,29,9.20
2012,11,06,13,30,9.20
2012,11,06,13,31,9.20
2012,11,06,13,32,9.20
2012,11,06,13,33,9.20
2012,11,06,13,34,9.20
2012,11,06,13,35,9.20
2012,11,06,13,36,9.20
2012,11,06,13,37,9.20
2012,11,06,13,38,9.20
2012,11,06,13,39,9.20
2012,11,06,13,41,9.20
2012,11,06,13,42,9.20
2012,11,06,13,43,9.20
2012,11,06,13,44,9.20
2012,11,06,13,45,9.20
2012,11,06,13,46,9.20
2012,11,06,13,47,9.20
2012,11,06,13,48,9.20
2012,11,06,13,49,9.20
2012,11,06,13,51,9.20
2012,11,06,13,52,9.20
2012,11,06,13,53,9.20
2012,11,06,13,54,9.20
2012,11,06,13,55,9.20
2012,11,06,13,56,9.10
2012,11,06,13,57,9.10
2012,11,06,13,58,9.10
2012,11,06,14,00,9.10
2012,11,06,14,01,9.10
2012,11,06,14,02,9.10
2012,11,06,14,03,9.10
2012,11,06,14,04,9.10
2012,11,06,14,06,9.10
2012,11,06,14,07,9.10
2012,11,06,14,08,9.10
2012,11,06,14,09,9.10
2012,11,06,14,11,9.10
2012,11,06,14,12,9.20
2012,11,06,14,13,9.10
2012,11,06,14,14,9.10
2012,11,06,14,16,9.10
2012,11,06,14,17,9.10
2012,11,06,14,18,9.10
2012,11,06,14,19,9.10
2012,11,06,14,20,9.00
2012,11,06,14,21,9.00
2012,11,06,14,22,9.00
2012,11,06,14,23,9.00
2012,11,06,14,24,9.10
2012,11,06,14,25,9.10
2012,11,06,14,26,9.10
2012,11,06,14,27,9.10
2012,11,06,14,28,9.00
2012,11,06,14,30,9.00
2012,11,06,14,31,9.00
2012,11,06,14,32,9.00
2012,11,06,14,33,9.10
2012,11,06,14,35,9.10
2012,11,06,14,36,9.10
2012,11,06,14,37,9.10
2012,11,06,14,38,9.10
2012,11,06,14,40,9.10
2012,11,06,14,41,9.10
2012,11,06,14,42,9.10
2012,11,06,14,44,9.10
2012,11,06,14,45,9.10
2012,11,06,14,46,9.10
2012,11,06,14,47,9.10
2012,11,06,14,48,9.10
2012,11,06,14,49,9.10
2012,11,06,14,50,9.10
2012,11,06,14,51,9.10
2012,11,06,14,53,9.10
2012,11,06,14,54,9.10
2012,11,06,14,55,9.10
2012,11,06,14,56,9.10
2012,11,06,14,58,9.10
2012,11,06,14,59,9.10
2012,11,06,15,00,9.10
2012,11,06,15,01,9.10
2012,11,06,15,02,9.10
2012,11,06,15,03,9.10
2012,11,06,15,04,9.10
2012,11,06,15,05,9.10
2012,11,06,15,06,9.10
2012,11,06,15,08,9.10
2012,11,06,15,09,9.10
2012,11,06,15,10,9.10
2012,11,06,15,11,9.10
2012,11,06,15,13,9.10
2012,11,06,15,14,9.10
2012,11,06,15,15,9.10
2012,11,06,15,16,9.00
2012,11,06,15,17,9.00
2012,11,06,15,18,9.00
2012,11,06,15,19,9.00
2012,11,06,15,20,9.00
2012,11,06,15,21,8.90
2012,11,06,15,23,8.90
2012,11,06,15,24,8.90
2012,11,06,15,25,8.90
2012,11,06,15,26,8.90
2012,11,06,15,27,8.90
2012,11,06,15,28,8.90
2012,11,06,15,29,8.90
2012,11,06,15,30,8.90
2012,11,06,15,31,8.90
2012,11,06,15,32,8.90
2012,11,06,15,33,8.90
2012,11,06,15,34,8.90
2012,11,06,15,36,8.90
2012,11,06,15,37,8.90
2012,11,06,15,38,8.90
2012,11,06,15,39,8.90
2012,11,06,15,40,8.90
2012,11,06,15,41,8.90
2012,11,06,15,43,8.90
2012,11,06,15,44,8.90
2012,11,06,15,45,8.90
2012,11,06,15,46,8.90
2012,11,06,15,48,8.90
2012,11,06,15,49,8.90
2012,11,06,15,50,8.90
2012,11,06,15,51,8.90
2012,11,06,15,52,8.90
2012,11,06,15,53,9.00
2012,11,06,15,55,9.00
2012,11,06,15,56,9.00
2012,11,06,15,57,9.00
2012,11,06,15,58,9.10
2012,11,06,15,59,9.10
2012,11,06,16,00,9.10
2012,11,06,16,01,9.10
2012,11,06,16,02,9.10
2012,11,06,16,03,9.10
2012,11,06,16,05,9.10
2012,11,06,16,06,9.10
2012,11,06,16,07,9.10
2012,11,06,16,08,9.10
2012,11,06,16,09,9.10
2012,11,06,16,10,9.10
2012,11,06,16,11,9.10
2012,11,06,16,12,9.10
2012,11,06,16,14,9.10
2012,11,06,16,15,9.10
2012,11,06,16,16,9.10
2012,11,06,16,17,9.00
2012,11,06,16,19,9.00
2012,11,06,16,20,8.90
2012,11,06,16,21,8.90
2012,11,06,16,22,8.90
2012,11,06,16,24,8.90
2012,11,06,16,25,8.90
2012,11,06,16,26,8.90
2012,11,06,16,27,8.90
2012,11,06,16,28,8.90
2012,11,06,16,29,8.90
2012,11,06,16,30,8.90
2012,11,06,16,31,8.80
2012,11,06,16,33,8.80
2012,11,06,16,34,8.80
2012,11,06,16,35,8.80
2012,11,06,16,37,8.80
2012,11,06,16,38,8.80
2012,11,06,16,39,8.80
2012,11,06,16,40,8.70
2012,11,06,16,41,8.70
2012,11,06,16,43,8.80
2012,11,06,16,44,8.70
2012,11,06,16,45,8.70
2012,11,06,16,46,8.70
2012,11,06,16,48,8.70
2012,11,06,16,49,8.70
2012,11,06,16,50,8.70
2012,11,06,16,51,8.70
2012,11,06,16,53,8.70
2012,11,06,16,54,8.60
2012,11,06,16,55,8.60
2012,11,06,16,56,8.60
2012,11,06,16,57,8.60
2012,11,06,16,58,8.60
2012,11,06,16,59,8.60
2012,11,06,17,00,8.60
2012,11,06,17,01,8.60
2012,11,06,17,02,8.60
2012,11,06,17,03,8.60
2012,11,06,17,04,8.60
2012,11,06,17,05,8.60
2012,11,06,17,07,8.60
2012,11,06,17,08,8.60
2012,11,06,17,09,8.60
2012,11,06,17,10,8.60
2012,11,06,17,12,8.60
2012,11,06,17,13,8.60
2012,11,06,17,14,8.60
2012,11,06,17,15,8.60
2012,11,06,17,17,8.60
2012,11,06,17,18,8.60
2012,11,06,17,19,8.60
2012,11,06,17,20,8.60
2012,11,06,17,23,8.70
2012,11,06,17,24,8.70
2012,11,06,17,25,8.70
2012,11,06,17,26,8.60
2012,11,06,17,27,8.70
2012,11,06,17,28,8.70
2012,11,06,17,30,8.70
2012,11,06,17,31,8.70
2012,11,06,17,32,8.70
2012,11,06,17,33,8.70
2012,11,06,17,34,8.80
2012,11,06,17,36,8.80
2012,11,06,17,37,8.90
2012,11,06,17,38,8.90
2012,11,06,17,39,9.10
2012,11,06,17,41,9.10
2012,11,06,17,42,9.10
2012,11,06,17,43,9.10
2012,11,06,17,44,9.10
2012,11,06,17,46,9.10
2012,11,06,17,47,9.10
2012,11,06,17,48,9.10
2012,11,06,17,49,9.10
2012,11,06,17,50,9.10
2012,11,06,17,51,9.20
2012,11,06,17,52,9.20
2012,11,06,17,53,9.20
2012,11,06,17,55,9.30
2012,11,06,17,56,9.30
2012,11,06,17,57,9.30
2012,11,06,17,58,9.40
2012,11,06,17,59,9.40
2012,11,06,18,00,9.40
2012,11,06,18,01,9.40
2012,11,06,18,02,9.40
2012,11,06,18,04,9.40
2012,11,06,18,05,9.50
2012,11,06,18,06,9.60
2012,11,06,18,07,9.60
2012,11,06,18,08,9.60
2012,11,06,18,09,9.60
2012,11,06,18,10,9.70
2012,11,06,18,11,9.70
2012,11,06,18,12,9.70
2012,11,06,18,14,9.70
2012,11,06,18,15,9.80
2012,11,06,18,16,9.80
2012,11,06,18,17,9.80
2012,11,06,18,18,9.80
2012,11,06,18,19,9.80
2012,11,06,18,20,9.80
2012,11,06,18,21,9.80
2012,11,06,18,22,9.80
2012,11,06,18,23,9.90
2012,11,06,18,24,9.90
2012,11,06,18,25,9.90
2012,11,06,18,26,9.90
2012,11,06,18,27,10.00
2012,11,06,18,29,10.00
2012,11,06,18,30,10.00
2012,11,06,18,31,10.10
2012,11,06,18,32,10.10
2012,11,06,18,33,10.10
2012,11,06,18,34,10.10
2012,11,06,18,36,10.10
2012,11,06,18,37,10.10
2012,11,06,18,38,10.10
2012,11,06,18,40,10.20
2012,11,06,18,41,10.20
2012,11,06,18,42,10.20
2012,11,06,18,43,10.20
2012,11,06,18,44,10.20
2012,11,06,18,45,10.20
2012,11,06,18,46,10.20
2012,11,06,18,47,10.30
2012,11,06,18,49,10.30
2012,11,06,18,50,10.40
2012,11,06,18,51,10.40
2012,11,06,18,52,10.50
2012,11,06,18,53,10.60
2012,11,06,18,54,10.60
2012,11,06,18,55,10.70
2012,11,06,18,57,10.70
2012,11,06,18,58,10.80
2012,11,06,18,59,10.90
2012,11,06,19,00,10.90
2012,11,06,19,02,10.90
2012,11,06,19,03,10.90
2012,11,06,19,04,10.90
2012,11,06,19,05,10.90
2012,11,06,19,06,10.90
2012,11,06,19,07,10.90
2012,11,06,19,08,10.90
2012,11,06,19,10,10.90
2012,11,06,19,11,10.90
2012,11,06,19,12,10.90
2012,11,06,19,13,10.90
2012,11,06,19,15,10.90
2012,11,06,19,16,10.90
2012,11,06,19,17,10.90
2012,11,06,19,18,10.90
2012,11,06,19,20,10.90
2012,11,06,19,21,10.90
2012,11,06,19,22,10.90
2012,11,06,19,23,10.90
2012,11,06,19,24,10.90
2012,11,06,19,26,10.90
2012,11,06,19,27,10.90
2012,11,06,19,28,10.90
2012,11,06,19,29,10.90
2012,11,06,19,30,10.90
2012,11,06,19,31,10.90
2012,11,06,19,32,10.90
2012,11,06,19,33,10.90
2012,11,06,19,34,10.90
2012,11,06,19,35,10.90
2012,11,06,19,36,10.90
2012,11,06,19,37,10.90
2012,11,06,19,38,10.90
2012,11,06,19,39,10.90
2012,11,06,19,40,10.90
2012,11,06,19,41,10.90
2012,11,06,19,42,10.90
2012,11,06,19,43,10.90
2012,11,06,19,45,10.90
2012,11,06,19,46,10.80
2012,11,06,19,47,10.80
2012,11,06,19,48,10.80
2012,11,06,19,49,10.80
2012,11,06,19,50,10.80
2012,11,06,19,51,10.80
2012,11,06,19,52,10.80
2012,11,06,19,53,10.80
2012,11,06,19,54,10.70
2012,11,06,19,55,10.80
2012,11,06,19,56,10.70
2012,11,06,19,57,10.80
2012,11,06,19,58,10.70
2012,11,06,19,59,10.70
2012,11,06,20,00,10.70
2012,11,06,20,01,10.70
2012,11,06,20,02,10.70
2012,11,06,20,03,10.70
2012,11,06,20,04,10.70
2012,11,06,20,05,10.70
2012,11,06,20,06,10.70
2012,11,06,20,07,10.70
2012,11,06,20,08,10.70
2012,11,06,20,09,10.70
2012,11,06,20,10,10.70
2012,11,06,20,11,10.70
2012,11,06,20,12,10.70
2012,11,06,20,13,10.70
2012,11,06,20,14,10.70
2012,11,06,20,15,10.70
2012,11,06,20,16,10.70
2012,11,06,20,17,10.70
2012,11,06,20,18,10.70
2012,11,06,20,19,10.70
2012,11,06,20,20,10.70
2012,11,06,20,21,10.70
2012,11,06,20,22,10.70
2012,11,06,20,23,10.70
2012,11,06,20,24,10.70
2012,11,06,20,25,10.70
2012,11,06,20,26,10.70
2012,11,06,20,28,10.70
2012,11,06,20,29,10.70
2012,11,06,20,30,10.70
2012,11,06,20,31,10.70
2012,11,06,20,33,10.70
2012,11,06,20,34,10.70
2012,11,06,20,35,10.70
2012,11,06,20,37,10.70
2012,11,06,20,38,10.70
2012,11,06,20,39,10.70
2012,11,06,20,40,10.70
2012,11,06,20,41,10.70
2012,11,06,20,42,10.70
2012,11,06,20,43,10.70
2012,11,06,20,44,10.70
2012,11,06,20,45,10.70
2012,11,06,20,46,10.70
2012,11,06,20,47,10.70
2012,11,06,20,48,10.70